Location: Czu?�w
(50.1404°N, 18.9919°E)
Time: 11:55:45
(UTC+00:00)

Cosmos 2151 - Pass Details

Date: 27 October 2020
Orbit: 580 x 602 km, 82.5° (Epoch: 24 November)

Event Time Altitude Azimuth Distance (km) Brightness Sun altitude
Rises 17:14:34 0° 357° (N) 2,824 6.5 -17.5°
Reaches altitude 10° 17:17:00 10° 8° (N) 1,916 5.5 -17.9°
Enters shadow 17:19:26 25° 38° (NE) 1,198 4.2 -18.3°
